www.pogodaiklimat.ru

Погода и климат >> Архив погоды >> Бангладеш >> Димла


ПОГОДА в Димле

  • Прогноз погоды в Димле
  • Монитор погоды в Димле

АРХИВ ПОГОДЫ в Димле

Время (UTC), дата Ветер
(напр.,м/с)
 
Видим.   Явления Облачность Т
(С)
Тd
(С)
f
(%)
Тe
(С)
Тes
(С)
Комфортность P
(гПа)
Po
(гПа)
Тmin
(С)
Tmax
(С)
R
(мм)
R24
(мм)
S
(см)
00 9.09 штиль 0 5000 м 10/5 270 м
[St As op]
+26.5 +26.0 97 +40 +40 очень
душно
1002.4 996.2
06 9.09 В 1 4000 м слаб. дождь 10/6 240 м
[Frnb As op]
+26.5 +26.5 100 +40 +42 очень
душно
1002.9 996.7 7
18 9.09 штиль 0 5000 м 10/4 540 м
[Sc As op]
+27.2 +26.0 93 +41 +41 опасность
перегрева
1002.0 995.8
00 10.09 штиль 0 5000 м 10/5 240 м
[St As op]
+26.5 +26.0 97 +40 +40 очень
душно
1002.0 995.8
06 10.09 штиль 0 5000 м 10/4 540 м
[Sc As op]
+29.9 +26.0 80 +45 +48 опасность
перегрева
1002.0 995.8
12 10.09 штиль 0 5000 м 9/4 540 м
[Sc As op]
+30.3 +26.0 78 +46 +46 опасность
перегрева
1000.4 994.3 +33.1
18 10.09 штиль 0 5000 м в посл. час дождь 10/5 240 м
[St As op]
+28.0 +26.0 89 +42 +42 опасность
перегрева
1002.8 996.6 0.5
00 11.09 штиль 0 5000 м {гроза, дождь} 10/6 240 м
[St As op]
+25.5 +25.5 100 +37 +37 очень
душно
1002.7 996.5 120
06 11.09 СВ 2 5000 м 10/6 240 м
[St As op]
+29.4 +27.0 87 +46 +48 опасность
перегрева
1003.9 997.7
12 11.09 СВ 1 4500 м гроза без осадков 10/6 240 м
[Cb calv As op]
+28.5 +27.0 92 +45 +45 опасность
перегрева
1002.8 996.6 +29.6 4
15 11.09 штиль 0 {гроза, дождь} н/о +27.3 +26.0 93 +41 +41 опасность
перегрева
1004.8 998.6 1
18 11.09 штиль 0 5000 м {гроза, дождь} 8/3 540 м
[Sc As op]
+27.0 +26.0 94 +40 +40 очень
душно
1005.4 999.2 1
00 12.09 В 1 5000 м 10/4 540 м
[Sc As op]
+26.5 +26.0 97 +40 +40 очень
душно
1004.7 998.5
06 12.09 В 1 5000 м гроза, ливневой дождь 10/6 240 м
[Cb cap As op]
+28.0 +26.0 89 +42 +44 опасность
перегрева
1006.8 1000.6 5
12 12.09 ЮВ 1 5000 м {дождь} 10/5 240 м
[St As op]
+28.7 +26.0 85 +43 +43 опасность
перегрева
1004.7 998.5 +31.2 0.3
18 12.09 ЮВ 1 5000 м в посл. час гроза {дождь} 10/5 240 м
[St As op]
+25.8 +25.0 95 +37 +37 очень
душно
1007.6 1001.3 42
00 13.09 ЮВ 1 5000 м {гроза, дождь} 10/5 240 м
[St As op]
+26.1 +26.0 99 +39 +39 очень
душно
1006.9 1000.6 21
06 13.09 Ю 1 5000 м в посл. час дождь 10/4 540 м
[Sc As op]
+28.3 +26.0 87 +42 +45 опасность
перегрева
1008.5 1002.2 1
12 13.09 Ю 1 5000 м {дождь} 10/4 540 м
[Sc As op]
+27.0 +26.0 94 +40 +40 очень
душно
1005.9 999.6 +28.5 16
18 13.09 В 1 5000 м 10/4 540 м
[Sc As op]
+26.3 +25.0 93 +38 +38 очень
душно
1007.4 1001.1
00 14.09 Ю 1 5000 м {дождь} 10/4 540 м
[Sc As op]
+26.2 +25.0 93 +37 +37 очень
душно
1007.1 1000.8 2
06 14.09 Ю 1 5000 м {дождь} 10/4 540 м
[Sc As op]
+30.2 +26.0 78 +45 +48 опасность
перегрева
1007.9 1001.7 4
12 14.09 ЮЗ 1 5000 м 10/4 540 м
[Sc As op]
+27.4 +26.0 92 +41 +41 опасность
перегрева
1005.7 999.4 +30.3
18 14.09 ЮЗ 1 5000 м 10/4 540 м
[Sc As op]
+26.0 +24.0 89 +36 +36 очень
душно
1006.9 1000.6
00 15.09 штиль 0 4000 м дождь 10/6 240 м
[St As op]
+26.0 +25.0 94 +37 +37 очень
душно
1006.6 1000.3 9
06 15.09 штиль 0 5000 м {гроза, дождь} 10/4 540 м
[Sc As op]
+27.7 +26.0 90 +41 +44 опасность
перегрева
1006.6 1000.3
12 15.09 штиль 0 5000 м 10/4 540 м
[Sc As op]
+27.5 +26.0 92 +41 +41 опасность
перегрева
1004.0 997.7 +28.0
18 15.09 штиль 0 4000 м мгла 10/4 540 м
[Sc As op]
+26.0 +25.0 94 +37 +37 очень
душно
1005.7 999.4

 

Местоположение метеостанции Димла (Бангладеш): широта 26.09 долгота 88.55 высота над уровнем моря 56 м.

В архиве по умолчанию представлена погода в Димле за последнюю неделю. Архивные данные за месяц целиком и за предыдущие месяцы, начиная с января 2011 года, Вы можете получить, выбрав интересующий диапазон дат из раскрывающегося списка и нажав кнопку "Ввод!".


*Определитесь, кто Вы:
робот инопланетянин человек

Внимание! Время в таблицах - всемирное. Для получения местного времени необходимо прибавить поправку, которая равна 6.5 ч.

Смотрите также архив погоды в соседних городах и на ближайших метеорологических станциях:

Погода в Тетулии (Бангладеш) (28 км)
Погода в Динаджпуре (Бангладеш) (51 км)
Погода в Джалпайгури (Западная Бенгалия, Индия) (52 км)
Погода в Саидпуре (Бангладеш) (53 км)
Погода в Силигури (Западная Бенгалия, Индия) (69 км)
Погода в Рангпуре (Бангладеш) (79 км)
Погода в Куч-Бихар (Западная Бенгалия, Индия) (96 км)
Погода в Балургхате (Западная Бенгалия, Индия) (99 км)
Погода в Раджархэте (Бангладеш) (105 км)
Погода в Калимпонге (Индия) (109 км)

Пояснения к столбцам:

Ветер - указаны скорость ветра в м/с - средняя за 10 мин, порывы в срок и между сроками (в фигурных скобках) и направление, откуда дует ветер: С - северный, СВ - северо-восточный, В - восточный, ЮВ - юго-восточный, Ю - южный, ЮЗ - юго-западный, З - западный, СЗ - северо-западный.
Видимость - горизонтальная дальность видимости в метрах или километрах. При видимости от 1 до 10 км при отсутствии осадков обычно наблюдается дымка, при ухудшении видимости до 1 км и менее - туман. В сухую погоду видимость может ухудшаться дымом, пылью или мглою.
Явления - указаны атмосферные явления, наблюдавшиеся в срок или в последний час перед сроком; фигурными скобками обозначены явления, наблюдавшиеся между сроками (за 1-3 часа до срока); квадратными скобками обозначены град или гололедные отложения с указанием их диаметра в мм.
Облачность - указаны через наклонную черту общая и нижняя облачность в баллах и высота нижней границы облаков в метрах; квадратными скобками обозначены формы облаков: Ci - перистые, Cs - перисто-слоистые, Cc - перисто-кучевые, Ac - высококучевые, As - высокослоистые, Sc - слоисто-кучевые, Ns - слоисто-дождевые, Cu - кучевые, Cb - кучево-дождевые. Подробнее классификацию облаков см. в Атласе облаков (PDF).
T - Температура воздуха - температура, измеренная на высоте 2 м над землей.
Td - Температура точки росы - температура, при понижении до которой содержащийся в воздухе водяной пар достигнет насыщения.
f - Относительная влажность воздуха - влажноcть воздуха, измеренная на высоте 2 м над землей.
Te - Эффективная температура - температура, которую ощущает одетый по сезону человек в тени. Характеристика душности погоды. При расчете учитывается влияние влажности воздуха и скорости ветра на теплоощущения человека.
Tes - Эффективная температура на солнце - температура, которую ощущает человек, с поправкой на солнечный нагрев. Характеристика знойности погоды. Зависит от высоты солнца над горизонтом, облачности и скорости ветра. Ночью, в пасмурную погоду, а также при ветре 12 м/с и более поправка равна нулю.
P - Атмосферное давление - приведенное к уровню моря атмосферное давление.
Po - Атмосферное давление - измеренное на уровне метеостанции атмосферное давление.
Tmin - Минимальная температура - минимум температуры воздуха на высоте 2 м над землей.
Tmax - Максимальная температура - максимум температуры воздуха на высоте 2 м над землей.
R - Количество осадков - Количество выпавших осадков за период времени, мм. При наведении курсора мыши на число - период времени, за который выпало указанное количество осадков.
R24 - Количество осадков - Количество выпавших осадков за 24 часа, мм.
S - Снежный покров - Высота снежного покрова, см. При наведении курсора мыши на число - состояние снежного покрова и степень покрытия местности в баллах.